Wind_Speed
16 15 14 13 11 9 7 7 6 6 6 8 10 12 14 16 17 19 19 19 22 24 24 23 25 25 24 22 20 19 19 18 21 28 27 35 34 30 31 34 36 37 36
17 15 13 11 9 7 6 4 3 4 5 7 10 12 14 16 18 18 17 20 21 21 21 22 22 21 23 22 21 22 22 22 24 28 27 28 33 32 30 30 34 35 37
19 17 15 13 11 9 6 3 0 3 6 9 11 14 16 17 18 17 18 20 20 21 19 19 21 21 23 23 23 24 24 25 25 27 30 26 28 30 34 31 28 28 33
21 20 18 16 13 11 8 4 2 5 8 12 14 15 17 18 17 16 19 19 20 20 19 19 20 20 22 22 24 25 25 26 27 28 28 28 26 25 29 30 32 24 25
24 24 23 19 17 14 10 6 5 6 9 12 14 16 18 18 15 18 18 19 21 22 21 20 20 21 24 24 25 25 25 25 25 27 27 26 25 21 21 23 28 29 31
27 29 26 22 20 16 12 9 8 8 10 13 15 17 19 18 19 15 17 20 20 21 22 22 22 22 21 23 24 25 26 28 28 25 26 25 29 27 27 28 30 28 17
31 30 27 25 22 19 15 12 10 11 13 15 16 18 19 20 20 18 18 19 20 20 21 22 24 22 23 24 24 25 25 25 26 29 30 29 29 28 27 28 27 30 35
29 30 28 26 24 20 15 13 12 13 14 16 17 18 20 21 21 18 18 19 20 19 19 21 24 26 24 26 28 28 28 27 28 30 31 33 31 32 31 32 34 35 35
28 30 29 28 24 19 16 14 13 14 14 16 17 19 21 22 21 18 18 19 20 21 21 21 24 28 27 27 31 30 29 30 32 34 35 36 35 33 33 33 29 26 25
27 28 27 25 22 18 15 13 14 14 16 17 19 20 21 23 20 19 17 19 22 24 25 24 24 27 30 31 32 31 33 34 36 37 37 38 38 39 37 36 34 29 28
19 20 22 21 19 16 14 13 14 14 16 18 20 20 21 20 21 21 16 19 21 25 24 26 27 29 31 32 33 35 34 37 33 29 29 29 29 30 31 33 35 34 32
17 19 20 19 16 15 14 14 14 15 17 18 21 22 21 20 21 19 17 18 22 25 27 28 31 32 34 34 32 32 35 37 33 30 30 29 29 29 30 31 32 35 37
19 20 19 18 17 16 15 15 14 15 16 18 19 22 23 22 22 19 20 21 22 25 27 31 30 27 32 33 33 29 28 24 23 23 25 27 27 29 30 29 30 34 38
21 21 19 18 16 15 14 14 15 15 16 17 18 21 24 25 20 22 24 24 23 27 20 25 32 27 24 21 24 24 22 21 22 25 27 28 29 28 29 27 29 30 30
21 20 18 16 14 13 14 14 16 16 16 16 18 23 24 21 18 20 23 24 24 21 27 29 28 25 22 21 22 22 22 22 22 23 25 27 28 27 29 26 27 29 28
20 19 17 16 15 15 15 16 15 14 13 15 18 20 21 19 21 20 21 22 22 21 22 22 23 19 18 20 22 25 24 23 23 25 26 26 28 28 28 29 26 26 28
20 17 17 16 15 15 15 16 18 16 15 15 13 14 15 18 18 18 19 19 19 16 16 20 20 19 21 21 21 22 25 27 28 25 25 26 28 29 28 27 28 27 28
15 16 16 16 16 16 16 16 16 17 16 19 13 13 14 13 15 16 15 18 19 16 17 19 22 22 22 22 24 24 26 27 27 26 27 27 26 26 27 26 26 26 27
15 16 17 17 17 17 17 17 16 17 18 20 18 17 12 11 12 10 11 13 16 18 19 21 22 23 23 24 25 26 25 27 28 28 27 27 28 26 27 27 27 29 29
15 16 17 17 17 18 17 17 17 18 18 20 20 18 17 13 14 16 15 14 15 17 20 22 23 24 25 25 26 27 27 27 27 27 27 28 28 27 27 27 27 26 26
15 15 16 18 18 20 19 18 20 19 20 20 21 17 14 16 17 19 17 16 16 18 20 22 24 25 26 26 27 26 27 28 28 28 29 29 29 27 28 26 27 26 26
16 15 16 17 17 19 20 20 21 21 21 21 21 18 14 17 18 19 20 20 19 19 20 21 23 24 25 25 27 28 29 31 31 31 29 30 28 27 26 26 25 24 23
11 12 13 16 18 18 19 20 21 21 22 21 20 19 18 18 19 20 21 21 21 21 21 21 22 23 23 24 25 26 28 32 33 33 30 30 28 26 25 24 23 21 19
11 14 15 16 17 17 19 20 19 19 20 20 19 19 19 20 20 20 21 21 22 22 21 21 21 22 23 24 24 24 24 26 30 26 28 29 28 27 24 22 20 20 17
9 11 13 15 16 17 17 17 18 18 19 19 20 20 20 19 20 20 19 19 20 22 22 21 21 22 23 23 22 21 20 20 26 21 27 24 23 23 22 20 20 18 17
10 12 13 14 15 17 18 18 19 19 19 19 20 20 20 21 21 20 19 19 21 22 22 22 22 21 22 22 20 19 18 19 24 24 23 21 21 21 20 19 18 17 16
Wind_Direction
158 149 144 135 124 115 106 94 77 54 30 12 3 357 354 351 350 347 345 343 338 335 334 329 323 323 318 313 308 301 293 287 278 287 286 295 297 296 297 298 298 295 291
174 166 163 159 156 151 142 120 84 42 11 357 350 348 348 348 348 345 341 338 335 331 327 323 317 315 310 309 306 302 296 291 283 288 291 292 292 297 296 293 294 294 292
187 185 185 186 184 184 182 178 139 354 352 348 348 348 347 346 345 341 338 331 327 324 320 314 311 310 306 305 302 299 297 295 289 285 291 291 290 296 299 296 292 289 290
198 198 202 204 204 207 211 217 286 334 340 340 340 341 341 344 343 333 329 325 323 318 316 310 306 303 301 302 300 296 295 294 292 288 287 290 288 290 291 296 298 295 290
206 208 213 212 213 216 222 237 273 304 320 328 331 334 336 339 334 330 327 322 319 316 313 309 306 301 298 296 295 296 297 295 295 294 292 294 295 299 290 297 295 301 295
213 218 217 216 219 224 230 246 268 290 312 321 326 328 330 334 335 329 324 318 315 313 312 311 309 307 303 299 295 292 289 291 288 289 292 291 291 291 291 294 297 303 301
221 224 222 221 224 227 236 250 267 290 308 315 320 324 326 330 335 326 322 315 310 309 308 310 309 306 302 300 299 296 291 287 284 285 285 285 290 290 291 289 282 277 278
226 228 226 224 226 229 238 253 275 293 304 314 318 321 323 327 330 324 319 311 308 306 305 305 304 302 301 300 296 289 284 281 281 278 272 275 277 278 272 269 270 271 274
234 234 230 227 226 231 245 263 281 293 306 310 314 318 321 326 331 323 320 313 307 306 305 301 298 296 298 298 293 292 291 287 281 278 276 277 278 279 279 281 277 280 280
240 239 231 224 227 236 252 270 283 295 305 308 311 317 322 324 330 326 317 312 306 305 300 297 296 301 302 301 298 293 286 283 282 278 274 271 270 269 272 268 270 269 269
243 232 221 223 231 243 257 270 282 292 298 305 309 315 321 327 330 327 317 308 299 298 298 301 298 302 302 301 297 289 282 290 298 305 302 291 278 267 261 256 254 253 259
230 221 221 226 236 251 262 272 280 294 301 307 309 313 321 329 333 325 313 307 307 304 300 299 298 299 301 306 308 306 301 301 303 301 296 290 285 279 273 268 263 259 257
219 219 222 230 241 252 263 274 285 294 300 305 309 311 318 326 327 326 312 309 311 308 304 305 311 314 308 304 305 306 305 305 303 299 295 292 289 286 284 279 273 266 266
220 220 224 232 243 256 268 279 287 291 294 297 302 306 313 317 318 319 320 320 313 311 317 317 318 316 317 316 317 318 314 307 300 294 292 292 293 290 283 276 273 271 268
219 221 227 238 250 261 271 277 282 286 289 293 299 303 302 298 301 309 310 313 313 325 319 317 329 338 336 330 322 317 315 312 307 301 300 297 296 289 285 282 273 272 265
218 222 231 242 251 258 264 271 270 273 277 278 281 283 288 287 300 305 307 309 317 326 316 330 332 331 325 320 317 318 318 315 310 308 306 302 301 297 291 289 280 272 269
225 231 237 242 248 255 263 269 280 277 279 286 286 286 280 291 296 300 304 308 314 320 325 332 326 325 321 317 315 315 311 312 311 307 306 305 304 305 297 288 286 281 277
237 242 245 251 252 254 259 266 272 279 290 295 290 292 294 288 293 300 306 301 314 327 335 330 327 327 318 315 316 312 311 311 311 309 309 309 306 305 307 300 289 283 283
245 251 255 256 256 257 259 259 261 270 279 286 292 292 295 294 293 291 306 310 319 325 331 327 329 327 320 318 313 311 310 308 309 308 309 312 311 309 305 303 304 301 295
250 255 259 262 261 261 258 260 262 266 274 278 283 287 298 307 299 305 309 312 316 320 323 323 326 327 327 322 318 318 314 316 316 313 311 315 314 310 305 304 305 304 302
263 262 262 262 258 263 265 261 265 268 270 274 278 285 286 290 287 296 302 309 314 315 317 319 320 323 325 327 326 320 320 317 317 318 316 320 317 312 310 307 305 305 306
267 267 265 262 267 269 270 271 269 268 269 272 278 283 281 274 287 295 301 307 312 313 315 316 318 322 323 324 327 326 324 321 321 323 319 323 319 315 313 312 312 312 313
271 270 270 274 276 273 269 270 268 269 270 272 276 280 285 287 291 295 300 306 310 312 316 318 321 322 325 325 326 326 326 328 329 334 319 324 323 320 319 317 321 322 324
282 285 283 280 279 274 273 272 271 271 271 274 278 281 284 288 291 294 300 305 306 310 314 318 322 324 325 327 328 329 330 333 336 336 337 338 335 333 330 331 337 339 340
288 281 277 277 279 280 281 277 275 275 277 279 281 283 287 289 290 294 299 304 305 310 312 318 321 324 328 329 330 330 335 338 342 342 343 343 345 348 350 350 355 1 3
299 289 286 284 284 287 285 283 281 282 282 284 285 287 289 290 292 296 301 304 306 308 311 314 317 321 325 329 332 332 334 341 343 343 346 352 356 359 3 9 14 18 17
Height
869 869 871 873 875 876 878 878 879 879 879 879 878 877 875 874 873 871 870 868 867 865 863 861 859 856 853 850 848 846 843 840 832 821 819 813 810 807 804 803 800 797 794
866 868 870 871 874 875 876 876 877 876 877 877 875 874 872 871 869 868 866 864 862 860 859 856 853 851 848 845 842 839 836 834 829 816 813 810 805 801 797 794 791 788 785
862 864 868 870 871 873 873 873 873 873 873 873 871 870 868 867 866 864 862 860 858 856 854 852 849 846 842 839 837 832 829 826 822 815 804 803 798 795 789 786 782 779 775
858 862 866 868 869 870 870 869 870 869 868 868 867 866 864 862 861 860 858 855 853 851 849 846 844 841 838 834 831 828 824 820 816 811 804 797 794 792 787 780 771 772 768
855 858 860 863 864 864 866 866 865 865 865 864 862 861 860 859 858 855 853 850 847 844 842 840 837 835 832 829 826 821 818 814 809 804 798 794 787 785 782 777 770 766 759
851 852 855 857 859 861 861 861 861 861 859 858 857 857 855 854 852 851 849 845 842 839 835 833 831 827 824 821 818 815 813 808 803 799 794 791 785 785 782 778 772 766 753
845 848 850 852 854 855 856 857 857 856 854 853 852 851 849 848 847 845 843 840 837 834 831 827 824 821 817 813 810 807 804 802 799 795 788 786 781 781 778 774 770 766 755
840 842 845 848 850 851 852 852 851 850 849 847 846 845 844 844 842 839 838 835 831 829 826 823 819 814 811 808 804 798 794 792 790 786 781 777 776 772 770 766 760 754 750
833 835 838 841 844 845 846 846 845 844 843 842 841 840 839 838 836 834 832 828 825 822 820 817 813 808 805 802 795 790 785 782 779 775 771 767 765 763 761 757 752 748 739
826 829 832 836 839 839 840 841 839 838 837 836 835 834 833 831 831 828 827 824 820 817 814 810 807 804 799 794 789 783 776 770 766 761 756 753 752 750 749 748 745 740 735
821 824 827 830 833 834 834 835 834 833 831 830 829 828 828 826 824 822 822 821 818 812 808 804 800 796 791 785 780 773 766 760 755 751 748 744 740 737 735 733 732 730 724
816 819 822 825 827 828 829 829 828 826 825 824 823 821 821 821 819 817 817 816 814 809 803 798 792 787 782 776 770 766 761 756 750 746 741 736 732 728 725 722 720 718 714
811 813 816 819 821 822 823 823 822 820 819 819 818 816 815 815 814 813 812 809 807 802 798 791 786 781 777 771 765 759 755 750 745 740 735 729 725 721 716 712 710 707 703
805 808 811 813 815 816 816 816 816 816 815 815 814 813 811 810 809 808 805 801 799 795 790 784 781 776 771 765 759 753 750 746 742 736 730 724 719 713 707 705 701 696 693
800 803 806 808 809 810 811 811 812 812 811 810 810 810 808 805 805 804 802 798 794 790 785 780 774 769 763 760 755 750 744 740 735 730 724 718 712 706 699 696 691 687 683
794 797 799 801 802 803 804 805 806 807 808 808 808 807 805 803 802 799 797 794 790 786 781 777 772 767 763 758 752 745 740 735 730 724 718 712 705 698 691 686 683 678 672
788 790 792 794 795 797 798 799 798 800 800 800 800 800 800 799 797 795 792 789 784 783 778 773 769 764 759 755 749 744 737 731 725 719 713 707 700 692 685 679 673 668 660
785 786 787 788 789 790 792 793 793 793 792 792 794 793 793 793 792 790 787 783 779 777 773 769 765 761 757 751 746 741 734 727 721 714 708 701 695 689 680 672 665 658 651
779 781 782 784 785 785 785 786 786 786 786 787 789 788 788 787 786 785 782 779 775 771 768 765 761 757 752 748 742 736 731 724 716 709 702 696 690 684 675 668 659 651 643
774 776 778 779 782 783 781 781 781 780 781 782 783 783 782 781 779 777 776 774 771 767 764 760 756 752 748 743 737 731 725 719 711 705 698 691 685 679 671 663 655 646 636
772 773 773 775 776 777 777 775 777 777 776 776 776 777 777 776 773 771 769 767 765 762 759 756 752 748 743 738 733 727 721 714 707 700 693 686 679 672 665 658 650 642 633
767 768 768 769 771 771 772 772 772 773 772 771 770 771 771 770 767 765 763 761 759 757 754 751 746 742 738 734 728 723 716 709 702 696 688 682 674 668 661 654 646 638 630
763 764 764 765 766 766 767 767 768 767 767 766 765 765 764 763 761 759 756 754 752 750 748 745 740 736 733 729 724 719 713 705 699 693 686 678 671 665 658 651 644 636 629
760 761 761 761 762 763 763 762 762 761 761 760 760 759 758 757 755 753 751 748 745 743 741 738 735 732 727 723 718 713 708 703 697 691 685 677 670 663 656 649 643 636 630
758 758 758 758 758 758 758 757 756 756 755 754 753 752 751 750 749 747 745 743 740 737 735 732 729 726 722 717 713 709 704 699 693 689 683 676 669 662 656 649 643 638 633
755 755 754 754 754 753 752 751 750 749 749 748 747 746 745 743 742 741 739 737 734 731 728 725 722 720 716 712 708 704 700 695 690 687 681 675 669 663 657 651 646 641 637